DateTime,F1_A11,F1_S11,BsB_S11,BsG_S11,BsR_S11,BbsB_S11,BbsG_S11,BbsR_S11,BaB_A11,BaG_A11,BaR_A11,T_S11,U_S11,P_S11,T1_A11
2016-09-19T00:00:00Z,0000380,21000600,,,,,,,,,,26.8,00.0,0654.1,34.8
2016-09-19T00:01:00Z,0000380,21000600,,,,,,,,,,26.8,00.0,0654.1,34.8
2016-09-19T00:02:00Z,0000380,21000600,,,,,,,,,,26.8,00.0,0654.0,34.8
2016-09-19T00:03:00Z,0000380,61000600,,,,,,,,,,26.9,00.0,0654.0,34.8
2016-09-19T00:04:00Z,0000380,41000600,-000.46,-000.20,-000.41,0000.26,0000.24,-000.13,0000.07,0000.04,0000.06,27.0,00.0,0654.9,34.8
2016-09-19T00:05:00Z,0000380,01000600,-000.06,-000.11,-000.37,0000.05,-000.08,-000.24,0000.04,0000.03,0000.14,27.0,00.0,0654.9,34.8
2016-09-19T00:06:00Z,0000380,01000600,0001.30,0000.97,-000.25,0000.34,0000.31,0000.44,0000.28,0000.30,0000.20,27.0,00.0,0654.9,34.8
2016-09-19T00:07:00Z,0000380,01000600,-000.84,0000.11,0000.29,0000.02,0000.16,0000.31,0000.09,-000.11,-000.21,27.0,00.0,0654.9,34.8
2016-09-19T00:08:00Z,0000380,01000600,-000.28,-000.36,0000.04,0000.37,0000.21,0000.08,0000.13,0000.00,0000.18,27.0,00.0,0654.9,34.8
2016-09-19T00:09:00Z,0000380,01000600,0000.24,0000.62,0000.00,0000.39,-000.13,-000.16,-000.10,0000.02,-000.12,27.0,00.0,0654.9,34.8
2016-09-19T00:10:00Z,0000380,01000600,0000.49,-000.24,-000.19,0000.16,-000.48,0000.26,-000.02,0000.01,0000.16,27.0,00.0,0654.8,34.8
2016-09-19T00:11:00Z,0000380,01000600,0000.38,-000.61,0000.45,0000.44,0000.23,0000.32,0000.01,0000.15,0000.20,27.0,00.0,0654.8,34.8
2016-09-19T00:12:00Z,0000380,01000600,0000.11,0000.06,-000.05,0000.11,-000.10,0000.02,0000.04,-000.04,-000.14,27.0,00.0,0654.7,34.8
2016-09-19T00:13:00Z,0000380,01000600,-000.61,0000.00,0000.45,-000.03,0000.27,0000.39,0000.06,-000.15,0000.10,27.0,00.0,0654.7,34.8
2016-09-19T00:14:00Z,0000380,01000600,0000.39,-000.08,-000.06,0001.04,0000.43,0000.16,0000.00,0000.22,-000.18,27.0,00.0,0654.7,34.8
2016-09-19T00:15:00Z,0000380,01000600,0000.50,-000.35,-000.23,0000.10,-000.05,0000.21,-000.03,-000.08,-000.01,27.0,00.0,0654.7,34.8
2016-09-19T00:16:00Z,0000380,01000600,-000.53,-000.32,0000.45,0000.18,0000.23,0000.15,-000.02,0000.09,0000.01,27.0,00.0,0654.6,34.8
2016-09-19T00:17:00Z,0000380,01000600,-000.91,0000.26,-000.05,0000.21,0000.45,0000.05,0000.14,0000.08,0000.09,27.0,00.0,0654.6,34.8
2016-09-19T00:18:00Z,0000380,01000600,0000.28,-001.08,-000.04,0000.42,0000.16,0000.03,0000.30,0000.10,0000.24,27.0,00.0,0654.6,34.8
2016-09-19T00:19:00Z,0000380,01000600,0000.04,0000.20,0000.16,0000.52,0000.16,-000.08,-000.19,-000.10,-000.03,27.0,00.0,0654.6,34.8
2016-09-19T00:20:00Z,0000380,01000600,-000.24,0000.31,-000.12,0000.36,-000.10,0000.19,-000.16,-000.06,0000.07,27.0,00.0,0654.5,34.8
2016-09-19T00:21:00Z,0000380,01000600,0000.99,-000.02,-000.37,0000.29,0000.11,-000.02,0000.18,0000.08,-000.17,27.0,00.0,0654.5,34.8
2016-09-19T00:22:00Z,0000380,01000600,-000.06,0000.18,0000.12,0000.37,0000.61,-000.10,-000.00,0000.03,0000.25,27.0,00.0,0654.5,34.8
2016-09-19T00:23:00Z,0000380,01000600,0000.75,0000.23,0000.27,0000.49,0000.06,0000.10,-000.06,0000.06,-000.14,27.0,00.0,0654.5,34.8
2016-09-19T00:24:00Z,0000380,01000600,-000.58,-000.25,0000.15,0000.28,-000.32,-000.15,-000.00,0000.04,0000.12,27.0,00.0,0654.5,34.8
2016-09-19T00:25:00Z,0000380,01000600,0000.58,-000.29,0000.15,0000.34,0000.21,0000.03,0000.07,0000.06,0000.08,27.0,00.0,0654.5,34.8
2016-09-19T00:26:00Z,0000380,01000600,0000.77,0000.07,0000.40,0000.03,0000.26,0000.28,0000.02,-000.08,-000.13,27.0,00.0,0654.5,34.8
2016-09-19T00:27:00Z,0000380,01000600,0000.34,0000.76,0000.69,0000.34,0000.16,0000.57,0000.17,0000.18,-000.19,27.0,00.0,0654.5,34.8
2016-09-19T00:28:00Z,0000380,01000600,-000.20,0000.23,0000.56,0000.24,-000.03,0000.45,-000.08,0000.01,0000.20,27.0,00.0,0654.5,34.8
2016-09-19T00:29:00Z,0000380,01000600,0000.63,-000.18,-000.49,0000.06,0000.08,-000.21,0000.19,-000.20,-000.13,27.0,00.0,0654.5,34.8
2016-09-19T00:30:00Z,0000380,01000600,0000.10,-000.50,-000.23,0000.63,0000.23,-000.15,-000.12,0000.16,0000.26,27.0,00.0,0654.5,34.8
2016-09-19T00:31:00Z,0000380,01000600,0000.95,-000.33,-000.57,0000.13,0000.10,-000.11,-000.07,-000.01,-000.11,27.0,00.0,0654.5,34.8
2016-09-19T00:32:00Z,0000380,01000600,-000.07,0000.13,-000.18,0000.60,-000.05,0000.02,0000.27,0000.05,-000.09,27.0,00.0,0654.4,34.8
2016-09-19T00:33:00Z,0000380,01000600,0000.05,0000.63,0000.05,0000.63,0000.18,-000.06,0000.06,0000.09,-000.04,27.0,00.0,0654.4,34.8
2016-09-19T00:34:00Z,0000380,01000600,0000.05,-000.15,-000.33,0000.45,0000.37,0000.00,-000.04,-000.08,0000.02,27.0,00.0,0654.4,34.8
2016-09-19T00:35:00Z,0000380,01000600,0000.63,-000.75,0000.21,0000.70,0000.11,-000.08,0000.30,0000.30,0000.49,27.0,00.0,0654.4,34.8
2016-09-19T00:36:00Z,0000380,01000600,0000.35,-000.38,-000.37,0000.49,0000.23,0000.13,-000.13,-000.24,-000.06,27.0,00.0,0654.4,34.8
2016-09-19T00:37:00Z,0000380,01000600,0000.84,-000.84,0000.07,0000.34,0000.11,0000.08,-000.02,0000.14,0000.08,27.0,00.0,0654.4,34.8
2016-09-19T00:38:00Z,0000380,01000600,-000.11,0000.38,0000.21,-000.21,0000.16,0000.34,0000.04,-000.05,-000.32,27.0,00.0,0654.4,34.8
2016-09-19T00:39:00Z,0000380,01000600,0001.15,-000.38,-000.20,0000.11,-000.10,-000.18,-000.08,0000.09,0000.20,27.0,00.0,0654.4,34.8
2016-09-19T00:40:00Z,0000380,01000600,0000.13,0000.11,0000.11,-000.16,0000.08,0000.29,0000.27,-000.04,-000.02,27.0,00.0,0654.4,34.8
2016-09-19T00:41:00Z,0000380,01000600,0000.55,0000.04,0000.07,-000.15,0000.27,0000.16,0000.02,0000.08,0000.13,27.1,00.0,0654.4,34.8
2016-09-19T00:42:00Z,0000380,01000600,-000.04,0000.05,-000.04,0000.24,0000.60,0000.15,-000.18,0000.17,-000.04,27.1,00.0,0654.3,34.8
2016-09-19T00:43:00Z,0000380,01000600,0000.35,-000.16,0000.16,0000.23,0000.10,0000.19,0000.21,-000.17,-000.09,27.1,00.0,0654.3,34.8
2016-09-19T00:44:00Z,0000380,01000600,0000.67,-000.23,0000.15,0000.39,0000.21,0000.05,-000.07,0000.20,0000.18,27.1,00.0,0654.3,34.8
2016-09-19T00:45:00Z,0000380,01000600,-000.76,-000.44,-000.41,0000.19,-000.06,-000.24,-000.00,-000.13,-000.07,27.1,00.0,0654.3,34.8
2016-09-19T00:46:00Z,0000380,01000600,0000.13,0000.66,0000.18,0000.58,0000.06,0000.11,-000.09,0000.07,0000.04,27.2,00.0,0654.2,34.8
2016-09-19T00:47:00Z,0000380,01000600,0001.69,-000.39,0000.03,0000.32,-000.03,0000.24,0000.08,-000.04,-000.34,27.1,00.0,0654.2,34.8
2016-09-19T00:48:00Z,0000380,01000600,0000.52,-000.12,0000.11,0000.36,0000.40,0000.03,-000.11,-000.00,0000.32,27.1,00.0,0654.2,34.8
2016-09-19T00:49:00Z,0000380,01000600,0000.39,-000.03,0000.16,0000.26,0000.15,-000.11,0000.11,0000.20,-000.17,27.1,00.0,0654.2,34.8
2016-09-19T00:50:00Z,0000380,01000600,0000.35,-000.19,-000.14,0000.74,0000.16,0000.24,0000.21,-000.12,0000.24,27.1,00.0,0654.2,34.8
2016-09-19T00:51:00Z,0000380,01000600,0000.43,-000.41,0000.18,0001.07,0000.37,-000.08,-000.15,-000.02,-000.02,27.1,00.0,0654.1,34.8
2016-09-19T00:52:00Z,0000380,01000600,-000.22,0000.09,-000.23,0000.76,0000.60,0000.08,-000.07,-000.12,-000.14,27.0,00.0,0654.1,34.8
2016-09-19T00:53:00Z,0000380,01000600,0000.40,-000.07,0000.36,0001.23,0000.11,0000.06,-000.16,0000.06,-000.01,27.0,00.0,0654.1,34.8
2016-09-19T00:54:00Z,0000380,01000600,0000.01,0000.28,-000.10,0000.24,0000.15,0000.03,0000.24,-000.05,0000.39,27.1,00.0,0654.0,34.8
2016-09-19T00:55:00Z,0000380,01000600,0000.60,-000.09,0000.50,0000.91,0000.61,0000.55,-000.03,0000.07,-000.14,27.0,00.0,0654.0,34.8
2016-09-19T00:56:00Z,0000380,01000600,0000.25,-000.75,0000.11,-000.18,0000.02,-000.44,0000.06,0000.23,-000.02,27.1,00.0,0654.0,34.8
2016-09-19T00:57:00Z,0000380,41000600,,,,,,,,,,,,0654.1,34.8
2016-09-19T00:58:00Z,0000380,61000600,,,,,,,,,,27.0,00.0,0653.0,34.8
2016-09-19T00:59:00Z,0000380,21000600,,,,,,,,,,27.0,00.0,0653.0,34.8
2016-09-19T01:00:00Z,0000380,21000600,,,,,,,,,,27.0,00.0,0653.0,34.8
2016-09-19T01:01:00Z,0000380,21000600,,,,,,,,,,27.0,00.0,0653.0,34.8
2016-09-19T01:02:00Z,0000380,21000600,,,,,,,,,,27.0,00.0,0653.0,34.8
2016-09-19T01:03:00Z,0000380,61000600,,,,,,,,,,27.0,00.0,0653.0,34.8
2016-09-19T01:04:00Z,0000380,41000600,-000.09,-001.02,-000.09,-000.08,-000.23,0000.31,0000.10,-000.07,-000.52,27.0,00.0,0653.9,34.8
2016-09-19T01:05:00Z,0000380,01010600,-000.95,0000.16,0000.13,0000.02,0000.21,-000.08,-000.08,0000.04,-000.04,27.0,00.0,0654.0,34.8
2016-09-19T01:06:00Z,0000380,01000600,-000.04,-000.09,-000.25,0000.31,0000.34,0000.00,0000.18,-000.02,0000.25,27.0,00.0,0654.0,34.8
2016-09-19T01:07:00Z,0000380,01000600,-000.61,0000.09,0000.45,0000.00,-000.19,0000.24,-000.02,0000.08,0000.03,27.0,00.0,0654.0,34.8
2016-09-19T01:08:00Z,0000380,01000600,-000.37,0000.05,0000.02,0000.62,0000.48,0000.00,-000.10,0000.00,-000.10,27.0,00.0,0654.0,34.8
2016-09-19T01:09:00Z,0000380,01000600,-000.32,0000.09,0000.25,-000.44,-000.15,-000.19,0000.18,0000.02,0000.03,27.0,00.0,0654.0,34.8
2016-09-19T01:10:00Z,0000380,01000600,-000.17,0000.18,0000.27,0000.36,0000.13,0000.34,0000.09,-000.00,0000.13,27.0,00.0,0654.0,34.8
2016-09-19T01:11:00Z,0000380,01000600,-000.04,-000.40,0000.57,0000.50,-000.42,0000.31,-000.05,0000.09,-000.14,27.1,00.0,0654.0,34.8
2016-09-19T01:12:00Z,0000380,01000600,0000.22,0000.20,0000.16,0000.40,0000.02,-000.26,0000.11,0000.11,0000.03,27.1,00.0,0654.0,34.8
2016-09-19T01:13:00Z,0000380,01000600,0000.45,-000.02,0000.04,0001.09,0000.06,0000.23,0000.04,0000.02,0000.07,27.1,00.0,0654.0,34.8
2016-09-19T01:14:00Z,0000380,01000600,0000.04,-000.27,-000.20,-000.15,-000.08,-000.13,0000.05,0000.08,0000.34,27.1,00.0,0653.9,34.8
2016-09-19T01:15:00Z,0000380,01000600,-001.01,0000.00,0000.45,0000.37,0000.16,-000.15,0000.20,-000.14,-000.68,27.1,00.0,0653.9,34.8
2016-09-19T01:16:00Z,0000380,01000600,-000.47,-000.46,0000.20,-000.21,-000.32,-000.15,-000.18,0000.26,0000.45,27.1,00.0,0653.9,34.8
2016-09-19T01:17:00Z,0000380,01000600,-000.30,-000.05,-000.21,0000.39,-000.35,-000.28,0000.12,-000.06,0000.09,27.1,00.0,0653.9,34.8
2016-09-19T01:18:00Z,0000380,01000600,-000.63,0000.22,-000.14,0000.16,0000.13,0000.08,0000.08,-000.09,-000.10,27.1,00.0,0653.9,34.8
2016-09-19T01:19:00Z,0000380,01000600,-000.04,-000.05,-000.09,0000.24,0000.05,0000.18,0000.02,0000.07,0000.10,27.0,00.0,0653.9,34.8
2016-09-19T01:20:00Z,0000380,01000600,-000.52,0000.60,-000.21,0000.16,0000.03,0000.06,0000.14,0000.02,-000.01,27.1,00.0,0653.9,34.8
2016-09-19T01:21:00Z,0000380,01000600,-000.45,-000.04,-000.55,0000.16,0000.40,0000.16,-000.06,-000.10,0000.26,27.1,00.0,0653.9,34.8
2016-09-19T01:22:00Z,0000380,01000600,-000.28,-000.26,-000.30,0000.11,0000.06,-000.15,-000.15,0000.10,-000.41,27.1,00.0,0653.9,34.8
2016-09-19T01:23:00Z,0000380,01000600,0000.24,0000.31,0000.25,0000.65,0000.29,-000.31,-000.07,0000.05,0000.09,27.1,00.0,0653.9,34.8
2016-09-19T01:24:00Z,0000380,01000600,-001.14,0000.38,0000.23,0000.13,0000.21,0000.00,0000.19,-000.09,0000.19,27.1,00.0,0653.9,34.8
2016-09-19T01:25:00Z,0000380,01000600,0000.23,0000.03,0000.07,0000.52,-000.27,0000.21,0000.15,0000.18,-000.07,27.1,00.0,0653.9,34.8
2016-09-19T01:26:00Z,0000380,01000600,-001.10,-000.44,-000.04,0000.53,0000.10,-000.08,-000.13,-000.10,-000.24,27.1,00.0,0653.9,34.8
2016-09-19T01:27:00Z,0000380,01000600,0000.26,-000.49,-000.25,0000.26,-000.18,-000.57,-000.02,0000.11,0000.32,27.1,00.0,0653.9,34.8
2016-09-19T01:28:00Z,0000380,01000600,0000.45,-000.20,0000.11,0000.70,0000.05,-000.03,0000.32,0000.03,0000.04,27.1,00.0,0653.9,34.8
2016-09-19T01:29:00Z,0000380,01000600,-000.19,-000.49,-000.04,0001.12,0000.18,-000.29,-000.05,0000.17,-000.15,27.1,00.0,0653.9,34.8
2016-09-19T01:30:00Z,0000380,01000600,0000.28,-000.05,-000.23,0000.26,-000.02,0000.28,0000.14,-000.08,-000.22,27.1,00.0,0653.9,34.8
2016-09-19T01:31:00Z,0000380,01000600,-000.54,-000.60,0000.09,0000.55,0000.32,-000.18,-000.13,0000.15,0000.30,27.1,00.0,0653.9,34.8
2016-09-19T01:32:00Z,0000380,01000600,-000.82,-000.27,0000.09,-000.24,-000.23,0000.00,0000.03,0000.02,-000.02,27.1,00.0,0653.9,34.8
2016-09-19T01:33:00Z,0000380,01000600,0000.02,0000.22,-000.11,-000.26,0000.27,-000.05,0000.04,-000.10,0000.38,27.1,00.0,0653.8,34.8
2016-09-19T01:34:00Z,0000380,01000600,-000.17,0000.02,0000.23,-000.23,0000.06,0000.13,0000.03,0000.05,-000.23,27.1,00.0,0653.8,34.8
2016-09-19T01:35:00Z,0000380,01000600,-001.10,-000.04,0000.39,0000.11,0000.24,0000.28,-000.07,-000.05,-000.12,27.1,00.0,0653.8,34.8
2016-09-19T01:36:00Z,0000380,01000600,-000.56,0000.09,0000.34,0000.21,0000.03,-000.11,0000.10,0000.04,0000.26,27.1,00.0,0653.8,34.8
2016-09-19T01:37:00Z,0000380,01000600,-000.52,0000.02,0000.39,0000.84,0000.06,-000.08,0000.06,0000.05,-000.07,27.1,00.0,0653.8,34.8
2016-09-19T01:38:00Z,0000380,01000600,0000.84,0000.45,0000.49,0000.19,-000.08,0000.29,-000.09,0000.07,-000.04,27.1,00.0,0653.8,34.8
2016-09-19T01:39:00Z,0000380,01000600,-000.09,-000.46,0000.41,0000.79,0000.08,0000.16,0000.08,0000.12,-000.01,27.1,00.0,0653.8,34.8
2016-09-19T01:40:00Z,0000380,01000600,0000.33,0000.35,0000.72,0000.88,0000.29,0000.05,-000.14,-000.11,0000.16,27.2,00.0,0653.8,34.8
2016-09-19T01:41:00Z,0000380,01000600,0000.13,-000.79,0000.25,-000.05,0000.06,0000.02,0000.02,0000.12,-000.09,27.2,00.0,0653.8,34.8
2016-09-19T01:42:00Z,0000380,01000600,-000.35,0000.11,0000.07,-000.24,0000.08,0000.19,0000.32,-000.07,0000.26,27.1,00.0,0653.8,34.8
2016-09-19T01:43:00Z,0000380,01000600,-000.45,0000.29,-000.18,0000.39,-000.11,-000.21,0000.01,0000.22,-000.13,27.1,00.0,0653.8,34.8
2016-09-19T01:44:00Z,0000380,01000600,0000.00,-000.20,0000.38,0000.28,0000.00,0000.08,-000.01,-000.01,-000.27,27.1,00.0,0653.8,34.8
2016-09-19T01:45:00Z,0000380,01000600,0000.88,-000.02,0000.47,0000.78,0000.23,0000.23,0000.25,-000.02,0000.04,27.2,00.0,0653.8,34.8
2016-09-19T01:46:00Z,0000380,01000600,-000.10,0000.17,0000.23,0000.45,0000.00,-000.08,-000.06,0000.01,0000.30,27.2,00.0,0653.8,34.8
2016-09-19T01:47:00Z,0000380,01000600,-000.43,0000.39,-000.39,0000.02,0000.24,-000.02,-000.06,-000.05,-000.07,27.1,00.0,0653.8,34.8
2016-09-19T01:48:00Z,0000380,01000600,0000.15,-000.46,0000.30,-000.03,0000.03,0000.00,-000.00,-000.00,-000.03,27.1,00.0,0653.8,34.8
2016-09-19T01:49:00Z,0000380,01000600,0000.13,-000.27,0000.48,-000.23,0000.11,0000.11,0000.08,-000.13,-000.16,27.1,00.0,0653.8,34.8
2016-09-19T01:50:00Z,0000380,01000600,-000.56,0000.24,0000.14,-000.05,0000.29,-000.03,-000.20,0000.20,0000.52,27.1,00.0,0653.8,34.8
2016-09-19T01:51:00Z,0000380,01000600,-000.58,0000.59,0000.06,0000.00,-000.47,-000.02,0000.14,0000.04,0000.00,27.0,00.0,0653.7,34.8
2016-09-19T01:52:00Z,0000380,01000600,-000.06,0000.52,0000.26,0000.39,0000.27,-000.16,-000.06,-000.06,-000.43,27.0,00.0,0653.7,34.8
2016-09-19T01:53:00Z,0000380,01000600,-000.13,-000.52,-000.37,0000.44,0000.31,-000.24,0000.08,0000.19,0000.30,27.0,00.0,0653.7,34.8
2016-09-19T01:54:00Z,0000380,01000600,0000.86,-000.44,0000.94,0000.55,0000.15,-000.02,0000.06,0000.08,-000.13,27.1,00.0,0653.7,34.8
2016-09-19T01:55:00Z,0000380,01000600,0000.22,0000.17,0000.41,-000.32,-000.19,0000.18,-000.06,-000.03,0000.20,27.0,00.0,0653.7,34.8
2016-09-19T01:56:00Z,0000380,01000600,0000.11,-000.13,0000.48,0000.10,0000.34,-000.24,0000.18,-000.16,-000.24,27.1,00.0,0653.7,34.8
2016-09-19T01:57:00Z,0000380,41000600,,,,,,,,,,,,0653.7,34.8
2016-09-19T01:58:00Z,0000380,61000600,,,,,,,,,,27.0,00.0,0652.7,34.8
2016-09-19T01:59:00Z,0000380,21000600,,,,,,,,,,27.0,00.0,0652.7,34.8
2016-09-19T02:00:00Z,0000380,21000600,,,,,,,,,,27.0,00.0,0652.7,34.8
2016-09-19T02:01:00Z,0000380,21000600,,,,,,,,,,27.0,00.0,0652.7,34.8
2016-09-19T02:02:00Z,0000380,21000600,,,,,,,,,,27.0,00.0,0652.7,34.8
2016-09-19T02:03:00Z,0000380,61000600,,,,,,,,,,27.1,00.0,0652.7,34.8
2016-09-19T02:04:00Z,0000380,41000600,0001.81,-000.42,-000.30,0000.63,-000.10,-000.13,0000.03,-000.13,-000.08,27.1,00.0,0653.7,34.8
2016-09-19T02:05:00Z,0000380,01000600,-000.08,0000.07,0000.32,0000.26,0000.10,0000.00,-000.06,0000.14,0000.17,27.0,00.0,0653.8,34.8
2016-09-19T02:06:00Z,0000380,01000600,0000.45,-000.13,0000.48,-000.45,-000.05,-000.11,0000.02,-000.00,-000.12,27.1,00.0,0653.8,34.8
2016-09-19T02:07:00Z,0000380,01000600,-000.26,0000.24,0000.82,-000.10,0000.32,-000.02,0000.06,-000.05,-000.01,27.0,00.0,0653.8,34.8
2016-09-19T02:08:00Z,0000380,01000600,0000.25,0000.35,0000.12,0000.02,-000.06,-000.62,-000.30,0000.05,0000.17,27.0,00.0,0653.8,34.8
2016-09-19T02:09:00Z,0000380,01000600,-000.05,0000.64,0000.49,0000.19,0000.47,0000.00,0000.18,0000.02,-000.04,27.0,00.0,0653.8,34.8
2016-09-19T02:10:00Z,0000380,01000600,-000.15,-000.39,0000.68,0000.32,-000.24,0000.05,-000.15,0000.02,0000.09,27.0,00.0,0653.7,34.8
2016-09-19T02:11:00Z,0000380,01000600,0000.23,-000.41,0000.56,-000.55,0000.02,0000.41,-000.01,0000.01,-000.12,27.0,00.0,0653.7,34.8
2016-09-19T02:12:00Z,0000380,01000600,0000.04,0000.80,0000.00,0000.19,0000.24,0000.62,-000.10,-000.04,0000.03,27.0,00.0,0653.7,34.8
2016-09-19T02:13:00Z,0000380,01000600,-000.20,-000.15,0000.16,0000.49,0000.29,0000.05,0000.13,0000.01,0000.07,27.1,00.0,0653.7,34.8
2016-09-19T02:14:00Z,0000380,01000600,0000.10,0000.76,0000.19,-000.03,0000.18,0000.13,0000.18,-000.02,0000.18,27.1,00.0,0653.7,34.8
2016-09-19T02:15:00Z,0000380,01000600,-000.28,0000.80,0000.47,0000.08,-000.26,0000.19,-000.31,-000.06,0000.00,27.1,00.0,0653.7,34.8
2016-09-19T02:16:00Z,0000380,01000600,-000.70,0000.15,-000.04,0000.42,0000.56,0000.05,0000.07,0000.00,-000.03,27.1,00.0,0653.7,34.8
2016-09-19T02:17:00Z,0000380,01000600,0000.87,-000.48,0000.98,0000.37,-000.10,-000.08,-000.07,0000.06,-000.15,27.1,00.0,0653.7,34.8
2016-09-19T02:18:00Z,0000380,01000600,-000.13,0000.79,0000.47,0000.60,0000.00,0000.34,0000.02,-000.17,-000.09,27.1,00.0,0653.7,34.8
2016-09-19T02:19:00Z,0000380,01000600,-000.74,-000.09,0000.02,0000.02,0000.37,-000.45,0000.09,0000.26,-000.11,27.1,00.0,0653.7,34.8
2016-09-19T02:20:00Z,0000380,01000600,-000.43,0000.26,0000.04,0000.28,0000.16,-000.18,0000.28,0000.04,-000.19,27.1,00.0,0653.7,34.8
2016-09-19T02:21:00Z,0000380,01000600,0000.39,0000.40,0000.04,0000.81,0000.76,0000.10,-000.01,0000.05,0000.26,27.1,00.0,0653.8,34.8
2016-09-19T02:22:00Z,0000380,01000600,0000.41,0000.06,-000.15,-000.49,-000.11,-000.37,0000.07,-000.11,0000.04,27.1,00.0,0653.8,34.8
2016-09-19T02:23:00Z,0000380,01000600,-000.95,-000.49,0000.13,0000.00,-000.31,0000.08,0000.01,0000.12,0000.20,27.1,00.0,0653.8,34.8
2016-09-19T02:24:00Z,0000380,01000600,0000.40,-000.04,0000.31,0000.50,0000.02,0000.02,0000.14,0000.11,-000.14,27.0,00.0,0653.8,34.8
2016-09-19T02:25:00Z,0000380,01000600,0000.33,0000.04,0000.97,0000.23,-000.26,-000.26,-000.01,-000.08,-000.05,27.0,00.0,0653.8,34.8
2016-09-19T02:26:00Z,0000380,01000600,0000.41,-000.10,-000.02,0000.47,0000.06,0000.03,-000.05,0000.06,0000.11,27.0,00.0,0653.8,34.8
2016-09-19T02:27:00Z,0000380,01000600,0000.34,-000.09,0000.09,0000.68,0000.08,0000.05,0000.19,0000.10,-000.07,27.0,00.0,0653.8,34.8
2016-09-19T02:28:00Z,0000380,01000600,0000.48,-000.14,0000.80,0000.92,-000.08,-000.23,0000.08,0000.07,0000.27,27.0,00.0,0653.8,34.8
2016-09-19T02:29:00Z,0000380,01000600,0000.49,0000.64,-000.24,0000.31,-000.18,-000.13,0000.02,-000.05,0000.00,27.0,00.0,0653.8,34.8
2016-09-19T02:30:00Z,0000380,01000600,0000.88,0000.05,0000.02,-000.32,0000.34,-000.15,-000.04,0000.13,0000.02,27.0,00.0,0653.8,34.8
2016-09-19T02:31:00Z,0000380,01000600,0000.14,0000.07,0000.55,0000.05,0000.05,0000.52,-000.02,-000.08,0000.07,27.0,00.0,0653.8,34.8
2016-09-19T02:32:00Z,0000380,01000600,0000.45,0000.66,0000.21,-000.16,0000.23,-000.02,-000.01,0000.09,-000.36,27.0,00.0,0653.8,34.8
2016-09-19T02:33:00Z,0000380,01000600,-000.28,0000.39,0000.34,0000.10,0000.34,0000.02,0000.01,-000.07,0000.19,27.0,00.0,0653.7,34.8
2016-09-19T02:34:00Z,0000380,01000600,0000.19,0000.44,0000.05,-000.13,-000.29,0000.11,0000.12,0000.09,0000.41,27.0,00.0,0653.7,34.8
2016-09-19T02:35:00Z,0000380,01000600,0000.67,0000.10,0000.60,0000.11,-000.05,-000.03,-000.24,-000.15,-000.12,27.0,00.0,0653.7,34.8
2016-09-19T02:36:00Z,0000380,01000600,0000.32,-000.08,0000.48,0000.37,0000.47,-000.13,0000.02,0000.27,0000.02,27.0,00.0,0653.7,34.8
2016-09-19T02:37:00Z,0000380,01000600,0000.33,-000.45,0000.25,0001.02,-000.10,-000.60,0000.04,-000.06,0000.04,27.0,00.0,0653.6,34.8
2016-09-19T02:38:00Z,0000380,01000600,0001.79,-000.07,0000.21,0000.36,-000.06,0000.05,0000.03,0000.07,0000.03,27.0,00.0,0653.7,34.8
2016-09-19T02:39:00Z,0000380,01000600,0000.37,-000.53,0000.27,0000.36,-000.10,0000.05,-000.15,-000.22,-000.13,27.1,00.0,0653.6,34.8
2016-09-19T02:40:00Z,0000380,01000600,0000.28,-000.15,0000.31,0000.05,0000.11,-000.03,-000.02,0000.16,-000.02,27.1,00.0,0653.6,34.8
2016-09-19T02:41:00Z,0000380,01000600,0000.23,0000.41,0000.18,-000.21,-000.05,0000.10,0000.11,0000.04,-000.14,27.0,00.0,0653.7,34.8
2016-09-19T02:42:00Z,0000380,01000600,-000.23,0000.42,0000.08,0000.13,0000.00,0000.15,-000.01,0000.03,0000.13,27.1,00.0,0653.6,34.8
2016-09-19T02:43:00Z,0000380,01000600,0000.52,0000.43,0000.67,-000.13,0000.06,0000.16,0000.12,0000.03,0000.26,27.1,00.0,0653.6,34.8
2016-09-19T02:44:00Z,0000380,01000600,0000.12,-000.46,0000.76,0000.10,0000.16,0000.41,0000.01,-000.03,-000.48,27.1,00.0,0653.7,34.8
2016-09-19T02:45:00Z,0000380,01000600,0000.25,0000.00,0000.35,0000.05,0000.31,0000.08,0000.04,0000.03,0000.09,27.1,00.0,0653.7,34.8
2016-09-19T02:46:00Z,0000380,01000600,-000.08,-000.83,-000.11,0000.58,0000.13,-000.02,0000.18,0000.12,-000.09,27.1,00.0,0653.7,34.8
2016-09-19T02:47:00Z,0000380,01000600,0000.29,-000.23,0000.23,-000.15,0000.21,-000.02,-000.05,0000.01,0000.19,27.2,00.0,0653.7,34.8
2016-09-19T02:48:00Z,0000380,01000600,-000.22,0000.14,-000.36,0000.47,-000.03,-000.70,0000.03,0000.08,0000.20,27.1,00.0,0653.7,34.8
2016-09-19T02:49:00Z,0000380,01000600,0000.75,-000.19,0000.14,0000.45,0000.08,0000.19,-000.09,-000.15,-000.19,27.1,00.0,0653.7,34.8
2016-09-19T02:50:00Z,0000380,01000600,0000.06,-000.46,0000.43,0000.16,-000.15,0000.37,0000.09,-000.08,-000.02,27.1,00.0,0653.7,34.8
2016-09-19T02:51:00Z,0000380,01000600,0000.08,-000.16,0000.31,-000.21,-000.26,-000.26,-000.09,0000.17,0000.19,27.1,00.0,0653.7,34.8
2016-09-19T02:52:00Z,0000380,01000600,-000.76,-000.04,-000.45,0000.41,0000.21,-000.19,0000.07,-000.06,-000.08,27.1,00.0,0653.7,34.8
2016-09-19T02:53:00Z,0000380,01000600,0000.57,0000.14,0000.31,0000.32,0000.48,0000.06,-000.16,0000.00,0000.22,27.1,00.0,0653.7,34.8
2016-09-19T02:54:00Z,0000380,01000600,0000.61,0000.25,0000.02,-000.37,0000.21,-000.60,0000.06,0000.07,-000.10,27.1,00.0,0653.7,34.8
2016-09-19T02:55:00Z,0000380,01000600,-001.33,0000.60,0000.22,0000.36,0000.02,-000.19,0000.06,-000.03,-000.04,27.1,00.0,0653.6,34.8
2016-09-19T02:56:00Z,0000380,01000600,0000.19,-000.02,-000.02,0000.37,0000.11,-000.03,0000.00,-000.09,0000.05,27.1,00.0,0653.7,34.8
2016-09-19T02:57:00Z,0000380,41000600,,,,,,,,,,,,0653.7,34.8
2016-09-19T02:58:00Z,0000380,61000600,,,,,,,,,,27.0,00.0,0652.6,34.8
2016-09-19T02:59:00Z,0000380,21000600,,,,,,,,,,27.0,00.0,0652.6,34.8
2016-09-19T03:00:00Z,0000380,21000600,,,,,,,,,,27.0,00.0,0652.6,34.8
2016-09-19T03:01:00Z,0000380,21000600,,,,,,,,,,27.0,00.0,0652.6,34.8
2016-09-19T03:02:00Z,0000380,21000600,,,,,,,,,,27.0,00.0,0652.6,34.8
2016-09-19T03:03:00Z,0000380,61000600,,,,,,,,,,27.1,00.0,0652.6,34.8
2016-09-19T03:04:00Z,0000380,41000600,-000.42,0000.36,0000.28,-000.10,-000.32,0000.08,0000.22,0000.05,-000.10,27.2,00.0,0653.6,34.8
2016-09-19T03:05:00Z,0000380,01000600,-000.32,-000.78,0000.59,0000.49,-000.37,0000.31,-000.00,-000.12,0000.20,27.2,00.0,0653.7,34.8
2016-09-19T03:06:00Z,0000380,01000600,-000.67,0000.21,0000.19,-000.15,0000.00,0000.39,0000.19,0000.08,0000.40,27.1,00.0,0653.7,34.8
2016-09-19T03:07:00Z,0000380,01000600,-000.89,-000.38,-000.07,-000.45,-000.15,0000.06,-000.11,0000.15,-000.39,27.1,00.0,0653.7,34.8
2016-09-19T03:08:00Z,0000380,01000600,0000.83,0000.22,0001.22,-000.39,-000.18,0000.42,0000.07,-000.08,-000.03,27.2,00.0,0653.7,34.8
2016-09-19T03:09:00Z,0000380,01000600,0000.19,-000.44,-000.73,-000.06,-000.13,0000.26,-000.19,0000.16,-000.08,27.1,00.0,0653.7,34.8
2016-09-19T03:10:00Z,0000380,01000600,0000.30,-000.15,0000.29,-000.34,0000.27,0000.16,-000.06,-000.14,0000.21,27.1,00.0,0653.8,34.8
2016-09-19T03:11:00Z,0000380,01000600,0000.09,0000.53,0000.30,-000.06,-000.06,0000.13,0000.22,-000.00,-000.05,27.2,00.0,0653.8,34.8
2016-09-19T03:12:00Z,0000380,01000600,0000.20,0000.05,-000.26,-000.02,0000.24,0000.08,0000.14,0000.03,-000.14,27.1,00.0,0653.8,34.8